Flag for U.S.A. Weather past 2 weeks in Chesapeake, Virginia, U.S.A.

Now
73 °F

Sunny.


Feels Like: 75 °F
Forecast: 61 / 86 °F
Wind: 7 mph from Southwest

Location: Chesapeake Municipal Airport

Current Time: May 25, 2015 at 9:37:14 AM

Latest Report: May 25, 2015 at 8:55 AM


Visibility: 10 mi

Pressure: 30.37 "Hg

Humidity: 74%

Dew point: 64 °F

Location of ChesapeakeLocation

Historic Weather in Chesapeake — Graph

°F

Chesapeake temperature yesterday

Maximum temperature yesterday: 82 °F (at 3:55 PM)
Minimum temperature yesterday: 54 °F (at 1:15 AM)
Average temperature yesterday: 69 °F

Past Weeks' High & Low Weather Summary

 TemperatureHumidityPressure
High91 °F (May 18, 1:15 PM)100% (May 11, 5:35 AM)30.45 "Hg (May 11, 5:35 AM)
Low48 °F (May 15, 6:35 AM)33% (May 22, 2:55 PM)29.77 "Hg (May 21, 3:35 PM)
Average71 °F72%30.15 "Hg
* Reported May 10 8:15 AM — May 25 8:15 AM, Chesapeake, Weather by CustomWeather, © 2015

Note: Actual official high and low records may vary slightly from our data, if they occured in-between our weather recording intervals... More about our weather records

Advertising

Chesapeake weather history for previous 24 hours

 ConditionsComfort  
Time TempWeatherWind HumidityBarometerVisibility
8:15 AM
Mon, May 25
72 °FSunny.5 mph78%30.36 "Hg10 mi
7:55 AM70 °FSunny.3 mph78%30.36 "Hg10 mi
7:35 AM66 °FSunny.No wind94%30.36 "Hg10 mi
7:15 AM64 °FSunny.No wind94%30.35 "Hg10 mi
6:55 AM63 °FSunny.No wind94%30.35 "Hg10 mi
6:15 AM61 °FClear.No wind100%30.35 "Hg7 mi
5:55 AM63 °FClear.No wind94%30.35 "Hg7 mi
5:35 AM63 °FClear.No wind94%30.34 "Hg10 mi
5:15 AM63 °FClear.No wind94%30.34 "Hg10 mi
4:55 AM63 °FClear.No wind94%30.33 "Hg10 mi
4:15 AM63 °FClear.No wind94%30.34 "Hg10 mi
3:55 AM63 °FClear.No wind94%30.34 "Hg10 mi
3:35 AM63 °FClear.No wind94%30.33 "Hg10 mi
3:15 AM63 °FClear.No wind88%30.33 "Hg10 mi
2:55 AM63 °FClear.No wind88%30.33 "Hg10 mi
2:35 AM64 °FClear.No wind83%30.33 "Hg10 mi
2:15 AM63 °FClear.No wind83%30.33 "Hg10 mi
1:55 AM64 °FClear.No wind78%30.33 "Hg10 mi
1:15 AM64 °FClear.3 mph78%30.33 "Hg10 mi
12:55 AM64 °FClear.3 mph78%30.34 "Hg10 mi
12:35 AM64 °FClear.3 mph78%30.34 "Hg10 mi
12:15 AM64 °FClear.5 mph78%30.34 "Hg10 mi
11:55 PM
Sun, May 24
66 °FClear.3 mph73%30.35 "Hg10 mi
11:15 PM66 °FClear.3 mph73%30.35 "Hg10 mi
10:55 PM68 °FClear.3 mph69%30.35 "Hg10 mi
10:15 PM70 °FClear.6 mph69%30.34 "Hg10 mi
9:55 PM70 °FClear.5 mph69%30.34 "Hg10 mi
9:15 PM72 °FClear.6 mph65%30.33 "Hg10 mi
8:55 PM72 °FSunny.5 mph65%30.33 "Hg10 mi
8:35 PM72 °FSunny.5 mph69%30.33 "Hg10 mi
8:15 PM73 °FSunny.6 mph65%30.33 "Hg10 mi
7:55 PM75 °FSunny.7 mph61%30.33 "Hg10 mi
7:35 PM75 °FSunny.7 mph61%30.32 "Hg10 mi
7:15 PM77 °FSunny.6 mph57%30.32 "Hg10 mi
6:55 PM79 °FSunny.8 mph54%30.32 "Hg10 mi
6:35 PM79 °FSunny.10 mph51%30.31 "Hg10 mi
6:15 PM79 °FSunny.8 mph51%30.31 "Hg10 mi
5:15 PM79 °FScattered clouds.5 mph54%30.32 "Hg10 mi
4:55 PM81 °FPartly sunny.6 mph51%30.32 "Hg10 mi
4:35 PM82 °FBroken clouds.8 mph48%30.33 "Hg10 mi
4:15 PM81 °FScattered clouds.5 mph45%30.34 "Hg10 mi
3:55 PM82 °FScattered clouds.7 mph45%30.34 "Hg10 mi
3:35 PM79 °FBroken clouds.9 mph51%30.35 "Hg10 mi
3:15 PM81 °FPartly sunny.3 mph45%30.35 "Hg10 mi
2:55 PM81 °FPartly sunny.5 mph45%30.36 "Hg10 mi
2:35 PM81 °FScattered clouds.5 mph48%30.37 "Hg10 mi
2:15 PM81 °FScattered clouds.6 mph48%30.38 "Hg10 mi
1:55 PM81 °FScattered clouds.5 mph45%30.38 "Hg10 mi
1:35 PM81 °FScattered clouds.No wind42%30.38 "Hg10 mi
1:15 PM81 °FScattered clouds.No wind42%30.39 "Hg10 mi
12:55 PM81 °FScattered clouds.7 mph45%30.39 "Hg10 mi
12:35 PM81 °FSunny.7 mph45%30.40 "Hg10 mi
12:15 PM79 °FSunny.3 mph45%30.40 "Hg10 mi
11:55 AM79 °FSunny.5 mph51%30.41 "Hg10 mi
11:35 AM79 °FSunny.3 mph48%30.41 "Hg10 mi
11:15 AM77 °FSunny.5 mph54%30.42 "Hg10 mi
10:55 AM75 °FSunny.No wind54%30.43 "Hg10 mi
10:35 AM75 °FScattered clouds.6 mph50%30.43 "Hg10 mi
10:15 AM75 °FScattered clouds.5 mph50%30.44 "Hg10 mi
9:55 AM73 °FPartly sunny.3 mph53%30.44 "Hg10 mi
9:35 AM72 °FSunny.3 mph53%30.44 "Hg10 mi
9:15 AM72 °FSunny.5 mph50%30.44 "Hg10 mi
Weather by CustomWeather, © 2015

See weather overviewHow to use our weather pages